| time (UTC) | temp C | wind direction | speed KPH | gust KPH | rain 1hr cm | rain 24hr cm | rain mn cm | humidity % | barometer mb |
| 20260504192504 | 26 | 169 | 12.9 | 27.4 | 0.00 | 0.00 | 0.00 | 62 | 1012.7 |
| 20260504192003 | 25 | 196 | 16.1 | 25.7 | 0.00 | 0.00 | 0.00 | 63 | 1012.7 |
| 20260504191521 | 25 | 142 | 12.9 | 25.7 | 0.00 | 0.00 | 0.00 | 61 | 1012.9 |
| 20260504191006 | 26 | 186 | 12.9 | 22.5 | 0.00 | 0.00 | 0.00 | 64 | 1012.9 |
| 20260504190504 | 25 | 192 | 12.9 | 25.7 | 0.00 | 0.00 | 0.00 | 64 | 1012.8 |
| 20260504190008 | 25 | 165 | 11.3 | 22.5 | 0.00 | 0.00 | 0.00 | 63 | 1013.0 |
| 20260504185507 | 25 | 197 | 14.5 | 30.6 | 0.00 | 0.00 | 0.00 | 64 | 1013.0 |
| 20260504184003 | 24 | 184 | 11.3 | 24.1 | 0.00 | 0.00 | 0.00 | 66 | 1013.1 |
| 20260504183507 | 25 | 141 | 14.5 | 24.1 | 0.00 | 0.00 | 0.00 | 66 | 1013.3 |
| 20260504183030 | 24 | 183 | 12.9 | 20.9 | 0.00 | 0.00 | 0.00 | 64 | 1013.4 |
| 20260504182514 | 24 | 159 | 9.7 | 37.0 | 0.00 | 0.00 | 0.00 | 65 | 1013.5 |
| 20260504182011 | 25 | 209 | 12.9 | 37.0 | 0.00 | 0.00 | 0.00 | 65 | 1013.7 |
| 20260504181507 | 24 | 231 | 12.9 | 22.5 | 0.00 | 0.00 | 0.00 | 64 | 1013.7 |
| 20260504181004 | 25 | 200 | 8.0 | 22.5 | 0.00 | 0.00 | 0.00 | 65 | 1013.8 |
| 20260504180506 | 24 | 225 | 11.3 | 22.5 | 0.00 | 0.00 | 0.00 | 64 | 1013.8 |
| 20260504180010 | 25 | 195 | 12.9 | 22.5 | 0.00 | 0.00 | 0.00 | 63 | 1013.8 |
| 20260504175505 | 24 | 209 | 14.5 | 22.5 | 0.00 | 0.00 | 0.00 | 64 | 1013.7 |
| 20260504175006 | 25 | 177 | 12.9 | 27.4 | 0.00 | 0.00 | 0.00 | 64 | 1013.8 |
| 20260504174514 | 25 | 227 | 14.5 | 27.4 | 0.00 | 0.00 | 0.00 | 62 | 1014.0 |
| 20260504174010 | 25 | 184 | 12.9 | 25.7 | 0.00 | 0.00 | 0.00 | 63 | 1014.2 |
| 20260504173506 | 24 | 208 | 12.9 | 32.2 | 0.00 | 0.00 | 0.00 | 64 | 1014.1 |
| 20260504173010 | 24 | 180 | 17.7 | 32.2 | 0.00 | 0.00 | 0.00 | 63 | 1014.1 |
| 20260504172507 | 25 | 215 | 16.1 | 25.7 | 0.00 | 0.00 | 0.00 | 63 | 1014.2 |
| 20260504172008 | 24 | 207 | 14.5 | 25.7 | 0.00 | 0.00 | 0.00 | 63 | 1014.3 |
| 20260504171508 | 24 | 187 | 11.3 | 25.7 | 0.00 | 0.00 | 0.00 | 65 | 1014.3 |
| 20260504170508 | 24 | 201 | 12.9 | 25.7 | 0.00 | 0.00 | 0.00 | 64 | 1014.5 |
| 20260504151010 | 21 | 198 | 17.7 | 27.4 | 0.00 | 0.00 | 0.00 | 68 | 1015.5 |
| 20260504150511 | 21 | 169 | 16.1 | 27.4 | 0.00 | 0.00 | 0.00 | 69 | 1015.4 |
| 20260504141010 | 18 | 168 | 12.9 | 22.5 | 0.00 | 0.00 | 0.00 | 75 | 1015.5 |
| 20260504140516 | 18 | 150 | 11.3 | 22.5 | 0.00 | 0.00 | 0.00 | 75 | 1015.5 |
| 20260504130508 | 15 | 158 | 6.4 | 12.9 | 0.00 | 0.00 | 0.00 | 81 | 1015.2 |
| 20260504100508 | 14 | 179 | 1.6 | 6.4 | 0.00 | 0.03 | 0.00 | 86 | 1015.3 |
| 20260504081510 | 15 | 159 | 8.0 | 11.3 | 0.00 | 0.03 | 0.00 | 80 | 1015.6 |
| 20260504081008 | 15 | 151 | 6.4 | 11.3 | 0.00 | 0.03 | 0.00 | 80 | 1015.6 |
| 20260504080507 | 15 | 172 | 6.4 | 11.3 | 0.00 | 0.03 | 0.00 | 80 | 1015.8 |
| 20260504050511 | 16 | 184 | 4.8 | 9.7 | 0.00 | 0.03 | 0.00 | 74 | 1017.7 |
| 20260504050016 | 16 | 161 | 4.8 | 12.9 | 0.00 | 0.03 | 0.00 | 73 | 1017.8 |
| 20260504045509 | 17 | 157 | 4.8 | 12.9 | 0.00 | 0.03 | 0.03 | 73 | 1017.8 |
| 20260504045009 | 17 | 167 | 4.8 | 12.9 | 0.00 | 0.03 | 0.03 | 72 | 1017.7 |
| 20260504044532 | 17 | 175 | 3.2 | 8.0 | 0.00 | 0.03 | 0.03 | 72 | 1017.8 |
| 20260504044007 | 17 | 159 | 4.8 | 11.3 | 0.00 | 0.03 | 0.03 | 71 | 1017.7 |
| 20260504043508 | 17 | 162 | 4.8 | 14.5 | 0.00 | 0.03 | 0.03 | 70 | 1017.7 |
| 20260504043030 | 17 | 153 | 8.0 | 14.5 | 0.00 | 0.03 | 0.03 | 69 | 1017.8 |
| 20260504042508 | 17 | 163 | 4.8 | 14.5 | 0.00 | 0.03 | 0.03 | 69 | 1017.9 |
| 20260504042007 | 17 | 179 | 6.4 | 14.5 | 0.00 | 0.03 | 0.03 | 68 | 1017.9 |
| 20260504041518 | 17 | 165 | 6.4 | 12.9 | 0.00 | 0.03 | 0.03 | 68 | 1017.9 |
| 20260504041010 | 18 | 178 | 8.0 | 16.1 | 0.00 | 0.03 | 0.03 | 67 | 1017.9 |
| 20260504040510 | 18 | 163 | 6.4 | 17.7 | 0.00 | 0.03 | 0.03 | 66 | 1018.0 |
| 20260504040022 | 18 | 163 | 8.0 | 17.7 | 0.00 | 0.03 | 0.03 | 65 | 1017.9 |
| 20260504035511 | 18 | 180 | 8.0 | 14.5 | 0.00 | 0.03 | 0.03 | 65 | 1017.8 |
| 20260504035010 | 18 | 179 | 4.8 | 14.5 | 0.00 | 0.03 | 0.03 | 64 | 1017.9 |
| 20260504034526 | 18 | 188 | 6.4 | 14.5 | 0.00 | 0.03 | 0.03 | 63 | 1017.8 |
| 20260504034017 | 18 | 168 | 6.4 | 17.7 | 0.00 | 0.03 | 0.03 | 63 | 1017.9 |
| 20260504033509 | 18 | 158 | 8.0 | 17.7 | 0.00 | 0.03 | 0.03 | 62 | 1017.8 |
| 20260504033023 | 18 | 135 | 6.4 | 14.5 | 0.00 | 0.03 | 0.03 | 63 | 1017.7 |
| 20260504032507 | 18 | 158 | 4.8 | 6.4 | 0.00 | 0.03 | 0.03 | 61 | 1017.6 |
| 20260504032013 | 18 | 142 | 3.2 | 6.4 | 0.00 | 0.03 | 0.03 | 62 | 1017.6 |
| 20260504031516 | 18 | 153 | 3.2 | 6.4 | 0.00 | 0.03 | 0.03 | 60 | 1017.7 |
| 20260504031007 | 18 | 146 | 4.8 | 6.4 | 0.00 | 0.03 | 0.03 | 61 | 1017.7 |
| 20260504030508 | 18 | 159 | 3.2 | 6.4 | 0.00 | 0.03 | 0.03 | 60 | 1017.6 |
| 20260504030021 | 18 | 145 | 3.2 | 6.4 | 0.00 | 0.03 | 0.03 | 60 | 1017.6 |
| 20260504025509 | 18 | 128 | 3.2 | 6.4 | 0.00 | 0.03 | 0.03 | 60 | 1017.6 |
| 20260504025005 | 18 | 159 | 3.2 | 9.7 | 0.00 | 0.03 | 0.03 | 59 | 1017.7 |
| 20260504024504 | 18 | 154 | 3.2 | 9.7 | 0.00 | 0.03 | 0.03 | 59 | 1017.6 |
| 20260504024003 | 19 | 161 | 4.8 | 8.0 | 0.00 | 0.03 | 0.03 | 59 | 1017.6 |
| 20260504023503 | 19 | 171 | 3.2 | 8.0 | 0.00 | 0.03 | 0.03 | 59 | 1017.7 |
| 20260504023007 | 19 | 148 | 3.2 | 9.7 | 0.00 | 0.03 | 0.03 | 59 | 1017.7 |
| 20260504022503 | 19 | 151 | 3.2 | 9.7 | 0.00 | 0.03 | 0.03 | 60 | 1017.6 |
| 20260504022014 | 19 | 175 | 4.8 | 9.7 | 0.00 | 0.03 | 0.03 | 59 | 1017.5 |
| 20260504021535 | 19 | 136 | 4.8 | 9.7 | 0.00 | 0.03 | 0.03 | 59 | 1017.5 |
| 20260504020527 | 19 | 148 | 4.8 | 8.0 | 0.00 | 0.03 | 0.03 | 59 | 1017.4 |
| 20260504020045 | 19 | 156 | 3.2 | 6.4 | 0.00 | 0.03 | 0.03 | 59 | 1017.4 |
| 20260504015505 | 20 | 145 | 3.2 | 6.4 | 0.00 | 0.03 | 0.03 | 58 | 1017.3 |
| 20260504015035 | 20 | 146 | 4.8 | 6.4 | 0.00 | 0.03 | 0.03 | 58 | 1017.3 |
| 20260504014555 | 20 | 146 | 3.2 | 4.8 | 0.00 | 0.03 | 0.03 | 57 | 1017.2 |
| 20260504014004 | 20 | 137 | 3.2 | 4.8 | 0.00 | 0.03 | 0.03 | 57 | 1017.3 |
| 20260504013507 | 20 | 138 | 1.6 | 4.8 | 0.00 | 0.03 | 0.03 | 55 | 1017.3 |
| 20260504013011 | 20 | 134 | 1.6 | 4.8 | 0.00 | 0.03 | 0.03 | 56 | 1017.3 |
| 20260504012505 | 20 | 147 | 1.6 | 4.8 | 0.00 | 0.03 | 0.03 | 55 | 1017.1 |
| 20260504012003 | 20 | 157 | 1.6 | 4.8 | 0.00 | 0.03 | 0.03 | 55 | 1017.2 |
| 20260504011511 | 21 | 161 | 1.6 | 8.0 | 0.00 | 0.03 | 0.03 | 53 | 1017.1 |
| 20260504011004 | 21 | 138 | 3.2 | 8.0 | 0.00 | 0.03 | 0.03 | 53 | 1017.2 |
| 20260504010510 | 21 | 152 | 4.8 | 8.0 | 0.00 | 0.03 | 0.03 | 52 | 1017.2 |
| 20260504010010 | 21 | 167 | 4.8 | 8.0 | 0.00 | 0.03 | 0.03 | 52 | 1017.1 |
| 20260504005508 | 21 | 151 | 3.2 | 8.0 | 0.00 | 0.03 | 0.03 | 52 | 1017.1 |
| 20260504005003 | 22 | 142 | 3.2 | 8.0 | 0.00 | 0.03 | 0.03 | 51 | 1017.2 |
| 20260504004514 | 22 | 147 | 3.2 | 8.0 | 0.00 | 0.03 | 0.03 | 50 | 1017.2 |
| 20260504004004 | 22 | 144 | 1.6 | 6.4 | 0.00 | 0.03 | 0.03 | 50 | 1017.2 |
| 20260504003504 | 22 | 159 | 1.6 | 8.0 | 0.00 | 0.03 | 0.03 | 49 | 1017.2 |
| 20260504003029 | 22 | 142 | 4.8 | 11.3 | 0.00 | 0.03 | 0.03 | 47 | 1017.3 |
| 20260504002505 | 22 | 144 | 4.8 | 11.3 | 0.00 | 0.03 | 0.03 | 46 | 1017.4 |
| 20260504002003 | 22 | 184 | 4.8 | 11.3 | 0.00 | 0.03 | 0.03 | 47 | 1017.4 |
| 20260504001504 | 23 | 151 | 4.8 | 11.3 | 0.00 | 0.03 | 0.03 | 46 | 1017.5 |
| 20260504001004 | 23 | 162 | 6.4 | 11.3 | 0.00 | 0.03 | 0.03 | 45 | 1017.6 |
| 20260504000507 | 23 | 157 | 6.4 | 14.5 | 0.00 | 0.03 | 0.03 | 44 | 1017.7 |
| 20260504000032 | 23 | 168 | 4.8 | 14.5 | 0.00 | 0.03 | 0.03 | 44 | 1017.7 |
| 20260503235509 | 23 | 175 | 8.0 | 14.5 | 0.00 | 0.03 | 0.03 | 44 | 1017.7 |
| 20260503235007 | 23 | 172 | 6.4 | 12.9 | 0.00 | 0.03 | 0.03 | 44 | 1017.6 |
| 20260503234512 | 24 | 146 | 6.4 | 12.9 | 0.00 | 0.03 | 0.03 | 43 | 1017.7 |
| 20260503234005 | 24 | 151 | 6.4 | 12.9 | 0.00 | 0.03 | 0.03 | 42 | 1017.7 |
| 20260503233504 | 24 | 169 | 8.0 | 14.5 | 0.00 | 0.03 | 0.03 | 41 | 1017.6 |
| 20260503233011 | 24 | 172 | 6.4 | 14.5 | 0.00 | 0.03 | 0.03 | 43 | 1017.8 |
| 20260503232510 | 24 | 173 | 6.4 | 14.5 | 0.00 | 0.03 | 0.03 | 42 | 1017.7 |
| 20260503232004 | 25 | 217 | 8.0 | 14.5 | 0.00 | 0.03 | 0.03 | 44 | 1017.6 |
| 20260503231509 | 25 | 227 | 8.0 | 16.1 | 0.00 | 0.03 | 0.03 | 42 | 1017.8 |
| 20260503231006 | 24 | 180 | 6.4 | 16.1 | 0.00 | 0.03 | 0.03 | 42 | 1017.9 |
| 20260503230507 | 25 | 184 | 8.0 | 16.1 | 0.00 | 0.03 | 0.03 | 44 | 1017.9 |
| 20260503230012 | 25 | 161 | 8.0 | 16.1 | 0.00 | 0.03 | 0.03 | 42 | 1017.9 |
| 20260503225511 | 25 | 175 | 8.0 | 14.5 | 0.00 | 0.03 | 0.03 | 42 | 1017.9 |
| 20260503225009 | 25 | 162 | 4.8 | 16.1 | 0.00 | 0.03 | 0.03 | 43 | 1017.9 |
| 20260503224509 | 25 | 202 | 6.4 | 19.3 | 0.00 | 0.03 | 0.03 | 40 | 1017.9 |
| 20260503224009 | 25 | 186 | 11.3 | 19.3 | 0.00 | 0.03 | 0.03 | 40 | 1018.0 |
| 20260503223507 | 25 | 159 | 9.7 | 20.9 | 0.00 | 0.03 | 0.03 | 41 | 1018.0 |
| 20260503223018 | 25 | 163 | 12.9 | 20.9 | 0.00 | 0.03 | 0.03 | 41 | 1018.1 |
| 20260503222505 | 25 | 153 | 6.4 | 17.7 | 0.00 | 0.03 | 0.03 | 41 | 1018.2 |
| 20260503222007 | 25 | 170 | 6.4 | 19.3 | 0.00 | 0.03 | 0.03 | 40 | 1018.1 |
| 20260503221513 | 25 | 165 | 9.7 | 19.3 | 0.00 | 0.03 | 0.03 | 42 | 1018.2 |
| 20260503221006 | 25 | 153 | 11.3 | 17.7 | 0.00 | 0.03 | 0.03 | 39 | 1018.2 |
| 20260503220504 | 25 | 142 | 8.0 | 14.5 | 0.00 | 0.03 | 0.03 | 42 | 1018.4 |
| 20260503220010 | 25 | 137 | 8.0 | 16.1 | 0.00 | 0.03 | 0.03 | 39 | 1018.4 |
| 20260503215507 | 25 | 167 | 9.7 | 16.1 | 0.00 | 0.03 | 0.03 | 38 | 1018.6 |
| 20260503215011 | 25 | 157 | 4.8 | 16.1 | 0.00 | 0.03 | 0.03 | 43 | 1018.5 |
| 20260503214524 | 25 | 159 | 9.7 | 16.1 | 0.00 | 0.03 | 0.03 | 42 | 1018.6 |
| 20260503214007 | 25 | 173 | 6.4 | 16.1 | 0.00 | 0.03 | 0.03 | 39 | 1018.9 |
| 20260503213507 | 25 | 160 | 6.4 | 22.5 | 0.00 | 0.03 | 0.03 | 41 | 1019.0 |
| 20260503213017 | 25 | 190 | 9.7 | 22.5 | 0.00 | 0.03 | 0.03 | 41 | 1019.2 |
| 20260503212512 | 25 | 169 | 9.7 | 16.1 | 0.00 | 0.03 | 0.03 | 38 | 1019.3 |
| 20260503212009 | 25 | 151 | 3.2 | 17.7 | 0.00 | 0.03 | 0.03 | 41 | 1019.4 |
| 20260503211515 | 25 | 182 | 9.7 | 17.7 | 0.00 | 0.03 | 0.03 | 40 | 1019.4 |
| 20260503211010 | 25 | 142 | 11.3 | 19.3 | 0.00 | 0.03 | 0.03 | 39 | 1019.3 |
| 20260503210505 | 25 | 168 | 8.0 | 19.3 | 0.00 | 0.03 | 0.03 | 42 | 1019.3 |
| 20260503210035 | 25 | 188 | 8.0 | 19.3 | 0.00 | 0.03 | 0.03 | 42 | 1019.4 |
| 20260503205511 | 25 | 174 | 9.7 | 16.1 | 0.00 | 0.03 | 0.03 | 42 | 1019.4 |
| 20260503205007 | 25 | 137 | 8.0 | 16.1 | 0.00 | 0.03 | 0.03 | 41 | 1019.5 |
| 20260503204518 | 25 | 148 | 8.0 | 20.9 | 0.00 | 0.03 | 0.03 | 43 | 1019.8 |
| 20260503204010 | 25 | 187 | 11.3 | 20.9 | 0.00 | 0.03 | 0.03 | 40 | 1019.7 |
| 20260503203507 | 25 | 193 | 11.3 | 17.7 | 0.00 | 0.03 | 0.03 | 42 | 1019.8 |
| 20260503203018 | 25 | 187 | 4.8 | 22.5 | 0.00 | 0.03 | 0.03 | 40 | 1019.9 |
| 20260503202508 | 25 | 183 | 9.7 | 22.5 | 0.00 | 0.03 | 0.03 | 43 | 1019.9 |
| 20260503202011 | 25 | 130 | 9.7 | 24.1 | 0.00 | 0.03 | 0.03 | 37 | 1020.0 |
| 20260503201519 | 25 | 179 | 12.9 | 24.1 | 0.00 | 0.03 | 0.03 | 39 | 1020.1 |
| 20260503201007 | 25 | 181 | 8.0 | 20.9 | 0.00 | 0.03 | 0.03 | 44 | 1020.1 |
| 20260503200508 | 25 | 239 | 6.4 | 19.3 | 0.00 | 0.03 | 0.03 | 39 | 1020.3 |
| 20260503200021 | 25 | 189 | 11.3 | 17.7 | 0.00 | 0.03 | 0.03 | 40 | 1020.3 |
| 20260503195507 | 25 | 188 | 8.0 | 17.7 | 0.00 | 0.03 | 0.03 | 38 | 1020.3 |
| 20260503195007 | 25 | 206 | 6.4 | 17.7 | 0.00 | 0.03 | 0.03 | 39 | 1020.4 |
| 20260503194515 | 25 | 143 | 9.7 | 17.7 | 0.00 | 0.03 | 0.03 | 39 | 1020.4 |
| 20260503194007 | 25 | 136 | 9.7 | 17.7 | 0.00 | 0.03 | 0.03 | 38 | 1020.5 |
| 20260503193506 | 25 | 153 | 8.0 | 19.3 | 0.00 | 0.03 | 0.03 | 38 | 1020.6 |
| 20260503193016 | 25 | 219 | 9.7 | 19.3 | 0.00 | 0.03 | 0.03 | 38 | 1020.7 |